Location: Unspecified
(0.0000°N, 0.0000°E)
Time: 11:31:12
(UTC+00:00)

S-56A Canister/Altair - Pass Details

Date: 28 November 2019
Orbit: 632 x 2500 km, 38.9° (Epoch: 13 December)

Event Time Altitude Azimuth Distance (km) Brightness Sun altitude
Rises 07:59:26 0° 204° (SSW) 5,041 11.7 30.4°
Reaches altitude 10° 08:03:19 10° 192° (SSW) 4,326 11.6 31.3°
Maximum altitude 08:13:08 27° 139° (SE) 3,658 12.6 33.5°
Drops below altitude 10° 08:24:37 10° 88° (E) 5,151 12.7 36.1°
Sets 08:29:42 0° 77° (ENE) 6,164 12.7 37.2°
